SL-8 DEB

Satellite information

Favourite Embed

Satellite Type and Status

DEBRISIN ORBIT

Key statistics

Satellite SL-8 DEB at a glance.

Uptime

14024

Days in orbit

Revolutions

≈ 14.1

Per day

Orbit

LEO

Low Earth Orbit

Inclination

82.9

Latest

Satellite identification and parameters

Extended collection of information and parameters for SL-8 DEB.

Object identification

Identified? True

Debris? True

Object name: SL-8 DEB

International designator: 1986-100C

Object number (NORAD): 18545

Object ID (CCSDS): 18545

Country: COMMONWEALTH OF INDEPENDENT STATES (CIS)

Current information (Y/N): Y

RCS size: SMALL

Orbital parameters

Period: 101.985 minutes

Inclination: 82.9187 deg

SMA: 7230.757 km

Apoapsis: 861.881 km

Periapsis: 843.363 km

RAAN: 89.7445 deg

Eccentricy: 0.0012805

Argument of periapsis: 320.2609 deg

Mean anomaly: 162.3881 deg

Mean motion: 14.11975408 rev/day

Mean motion (dot): 0.00002613 rev/day2

B* drag term: 0.0014192 1/REarth

Two-line elements (TLE)

Creation date: May 10, 2025, 2:32 a.m.

Reference frame: TEME

Reference center: EARTH

Epoch: May 9, 2025, 3:21 p.m. UTC

TLE line 0: 0 SL-8 DEB

TLE line 1: 1 18545U 86100C 25129.63999022 .00002613 00000-0 14192-2 0 9998

TLE line 2: 2 18545 82.9187 89.7445 0012805 320.2609 162.3881 14.11975408948667

Live tracking on map

Real-time ground track for satellite SL-8 DEB.

In-orbit conjunctions

A list of the most updated potential collisions computed for object SL-8 DEB.

Target Orbit TCA Probability of collision Miss distance Type
FENGYUN 1C DEB SSO 2024-07-31 20:14:41 0.001355245 37.0 (m) DEBRIS

Associated space launch

Navigation satellite providing location information for the Tsiklon-B navigation system

SL-8 DEB was lifted into orbit during the mission ‘Kosmos-3M | Parus 57’, on board a Kosmos-3M space rocket.

The launch took place on Dec. 17, 1986, 5:02 p.m. from 132/1 (132L).

For more information about the launch, click the button.

Launch to space Kosmos-3M | Parus 57
Kosmos-3M | Parus 57

Agency: N/A

Status: Launch Successful

Launch date: Dec. 17, 1986, 5:02 p.m. UTC

Rocket: Kosmos-3M

Launch pad: 132/1 (132L)

Location: Plesetsk Cosmodrome, Russian Federation

...

Latest news about this satellite

There are no fresh news available about this satellite. Check back as we update our databases every day.


Newsletter sign-up

Weekly statistics, charts and insights to help you stay on top of the space industry.